N2XP-2 Weather Reports


time (UTC)temp
C
wind
direction
speed
KPH
gust
KPH
rain 1hr
cm
rain 24hr
cm
rain mn
cm
humidity
%
barometer
mb
20260504194636 23 100 1.6 4.8 0.00 1.40 0.13 50 1010.6
20260504194440 23 100 1.6 4.8 0.00 1.40 0.13 50 1010.6
20260504194015 23 104 3.2 0.0 0.00 1.40 0.10 49 1010.4
20260504193936 23 104 3.2 0.0 0.00 1.40 0.10 49 1010.4
20260504193514 23 167 3.2 4.8 0.00 1.40 0.10 49 1010.4
20260504193436 23 167 3.2 4.8 0.00 1.40 0.10 49 1010.4
20260504192936 23 111 3.2 0.0 0.00 1.40 0.10 48 1010.6
20260504192928 25 263 3.2 4.8 0.00 1.40 0.08 40 1010.8
20260504192538 24 163 1.6 0.0 0.00 1.40 0.10 47 1010.5
20260504192506 24 163 1.6 0.0 0.00 1.40 0.10 47 1010.5
20260504192418 24 163 1.6 0.0 0.00 1.40 0.10 47 1010.5
20260504191450 25 259 0.0 9.7 0.00 1.40 0.10 45 1010.7
20260504191416 25 259 0.0 9.7 0.00 1.40 0.10 45 1010.7
20260504190415 25 263 3.2 4.8 0.00 1.40 0.08 40 1010.8
20260504185443 26 228 4.8 1.6 0.00 1.40 0.08 44 1010.9
20260504185411 26 228 4.8 1.6 0.00 1.40 0.08 44 1010.9
20260504184946 26 218 3.2 4.8 0.00 1.40 0.08 40 1011.0
20260504184911 26 218 3.2 4.8 0.00 1.40 0.08 40 1011.0
20260504184444 26 235 0.0 11.3 0.00 1.40 0.08 33 1011.1
20260504184411 26 235 0.0 11.3 0.00 1.40 0.08 33 1011.1
20260504183908 26 266 0.0 0.0 0.00 1.40 0.08 33 1011.1
20260504183409 26 176 3.2 0.0 0.00 1.40 0.08 33 1011.2
20260504182910 26 329 1.6 3.2 0.00 1.40 0.08 33 1011.2
20260504182529 26 158 0.0 4.8 0.00 1.40 0.08 33 1011.4
20260504182516 26 329 1.6 1.6 0.00 1.40 0.08 34 1011.5
20260504182440 26 194 0.0 0.0 0.00 1.40 0.08 33 1011.3
20260504182407 26 194 0.0 0.0 0.00 1.40 0.08 33 1011.3
20260504181908 26 201 4.8 3.2 0.00 1.40 0.08 33 1011.3
20260504181455 26 271 1.6 4.8 0.00 1.40 0.08 33 1011.3
20260504181408 26 271 1.6 4.8 0.00 1.40 0.08 33 1011.3
20260504180904 26 204 4.8 4.8 0.00 1.40 0.08 32 1011.4
20260504180446 26 158 0.0 4.8 0.00 1.40 0.08 33 1011.4
20260504180405 26 158 0.0 4.8 0.00 1.40 0.08 33 1011.4
20260504175402 26 329 1.6 1.6 0.00 1.40 0.08 34 1011.5
20260504175326 26 277 0.0 0.0 0.03 1.40 0.08 34 1011.8
20260504174902 26 359 1.6 0.0 0.03 1.40 0.08 34 1011.7
20260504174510 26 287 1.6 1.6 0.03 1.40 0.08 34 1011.7
20260504174403 26 287 1.6 1.6 0.03 1.40 0.08 34 1011.7
20260504173436 26 235 4.8 4.8 0.03 1.40 0.08 34 1011.9
20260504173400 26 235 4.8 4.8 0.03 1.40 0.08 34 1011.9
20260504172900 26 277 0.0 0.0 0.03 1.40 0.08 34 1011.8
20260504172357 26 302 0.0 4.8 0.03 1.40 0.08 35 1011.9
20260504172126 25 190 1.6 3.2 0.03 1.40 0.08 36 1012.2
20260504172118 25 215 0.0 8.0 0.03 1.40 0.08 37 1012.2
20260504171858 26 218 0.0 3.2 0.03 1.40 0.08 35 1012.0
20260504171359 25 203 0.0 0.0 0.03 1.40 0.08 36 1012.1
20260504170855 25 297 0.0 0.0 0.03 1.40 0.08 36 1012.1
20260504170441 25 203 1.6 0.0 0.03 1.40 0.08 36 1012.2
20260504170356 25 203 1.6 0.0 0.03 1.40 0.08 36 1012.2
20260504160349 23 162 0.0 0.0 0.00 1.40 0.05 41 1012.8
20260504150915 20 225 1.6 1.6 0.00 1.40 0.05 48 1013.2
20260504150913 20 212 4.8 3.2 0.00 1.40 0.05 49 1013.3
20260504150842 20 225 1.6 1.6 0.00 1.40 0.05 48 1013.2
20260504150735 20 212 4.8 3.2 0.00 1.40 0.05 49 1013.3
20260504150343 20 212 4.8 3.2 0.00 1.40 0.05 49 1013.3
20260504140939 18 336 3.2 0.0 0.03 1.40 0.05 49 1013.6
20260504140913 17 233 6.4 3.2 0.00 1.40 0.05 54 1013.9
20260504140837 18 336 3.2 0.0 0.03 1.40 0.05 49 1013.6
20260504140338 18 204 3.2 0.0 0.03 1.40 0.05 50 1013.6
20260504130525 15 83 3.2 0.0 0.00 1.40 0.03 61 1014.3
20260504130518 15 231 1.6 4.8 0.00 1.40 0.03 62 1014.4
20260504130508 15 277 1.6 0.0 0.00 1.40 0.03 63 1014.4
20260504130334 16 201 3.2 4.8 0.00 1.40 0.03 59 1014.1
20260504120308 15 287 4.8 3.2 0.00 1.40 0.03 65 1014.6
20260504120123 16 284 4.8 11.3 0.00 1.40 0.03 64 1014.8
20260504120119 16 188 1.6 1.6 0.00 1.40 0.03 65 1014.8
20260504120114 16 294 3.2 4.8 0.00 1.40 0.03 64 1014.8
20260504110349 12 243 3.2 3.2 0.00 1.40 0.03 73 1015.1
20260504110303 12 243 3.2 3.2 0.00 1.40 0.03 73 1015.1
20260504100300 8 217 1.6 1.6 0.00 1.40 0.03 77 1014.8
20260504081748 9 283 3.2 1.6 0.00 1.40 0.03 71 1014.8
20260504081711 9 311 0.0 1.6 0.00 1.40 0.03 71 1014.7
20260504081707 9 153 1.6 1.6 0.00 1.40 0.03 70 1014.6
20260504081250 9 311 0.0 1.6 0.00 1.40 0.03 71 1014.7
20260504080746 9 153 1.6 1.6 0.00 1.40 0.03 70 1014.6
20260504080240 9 229 1.6 3.2 0.00 1.40 0.03 70 1014.5
20260504080236 9 219 1.6 0.0 0.00 1.40 0.03 69 1014.5
20260504070333 9 197 0.0 0.0 0.03 1.40 0.03 67 1014.1
20260504070230 9 197 0.0 0.0 0.03 1.40 0.03 67 1014.1
20260504060226 10 264 0.0 0.0 0.00 1.40 0.03 63 1014.1
20260504050510 10 262 0.0 0.0 0.38 0.10 1.40 59 1013.8
20260504050501 10 260 0.0 0.0 0.38 0.10 1.40 59 1013.7
20260504050222 10 180 1.6 0.0 0.00 1.40 0.00 60 1014.0
20260504045723 10 183 0.0 0.0 0.00 1.40 0.00 60 1014.0
20260504045555 10 183 0.0 0.0 0.00 1.40 0.00 60 1013.9
20260504045220 10 183 0.0 0.0 0.00 1.40 0.00 60 1013.9
20260504044756 10 262 0.0 0.0 0.38 0.10 1.40 59 1013.9
20260504044721 10 262 0.0 0.0 0.38 0.10 1.40 59 1013.9
20260504044321 10 262 0.0 0.0 0.38 0.10 1.40 59 1013.8
20260504044222 10 262 0.0 0.0 0.38 0.10 1.40 59 1013.8
20260504043719 10 260 0.0 0.0 0.38 0.10 1.40 59 1013.7
20260504043619 10 280 0.0 0.0 0.38 0.10 1.40 58 1013.7
20260504043220 10 280 0.0 0.0 0.38 0.10 1.40 58 1013.7
20260504042722 10 280 0.0 0.0 0.38 0.10 1.40 58 1013.7
20260504042219 10 238 0.0 0.0 0.38 0.10 1.40 58 1013.8
20260504041720 11 238 0.0 1.6 0.38 0.10 1.40 58 1013.7
20260504041221 11 198 0.0 0.0 0.38 0.10 1.40 58 1013.7
20260504040718 11 195 0.0 0.0 0.38 0.10 1.40 57 1013.6
20260504040219 11 195 0.0 0.0 0.38 0.10 1.40 57 1013.5
20260504040109 11 270 0.0 0.0 0.18 0.10 1.27 56 1013.4
20260504035719 11 195 0.0 0.0 0.38 0.10 1.40 57 1013.5
20260504035216 11 195 0.0 0.0 0.38 0.10 1.40 57 1013.5
20260504034717 11 195 0.0 0.0 0.18 0.10 1.37 57 1013.5
20260504034218 11 229 0.0 0.0 0.18 0.10 1.35 57 1013.4
20260504033715 11 270 0.0 0.0 0.18 0.10 1.27 56 1013.4
20260504033216 11 252 0.0 0.0 0.18 0.10 1.24 57 1013.4
20260504032717 11 252 0.0 0.0 0.18 0.10 1.22 56 1013.4
20260504032214 11 252 0.0 0.0 0.18 0.10 1.17 56 1013.4
20260504031715 11 252 0.0 0.0 0.18 0.10 1.14 56 1013.4
20260504031216 11 252 0.0 0.0 0.18 0.10 1.14 56 1013.4
20260504030713 11 267 0.0 0.0 0.18 0.10 1.09 56 1013.4
20260504030214 11 248 0.0 0.0 0.18 0.10 1.07 56 1013.3
20260504025712 12 240 0.0 0.0 0.05 0.10 1.02 55 1013.3
20260504025702 12 214 1.6 0.0 0.05 0.10 1.02 55 1013.3
20260504025212 11 288 0.0 0.0 0.18 0.10 1.02 55 1013.4
20260504024714 11 329 1.6 0.0 0.05 0.10 1.02 55 1013.4
20260504024215 12 278 0.0 0.0 0.05 0.10 1.02 55 1013.3
20260504023713 12 240 0.0 0.0 0.05 0.10 1.02 55 1013.3
20260504023213 12 214 1.6 0.0 0.05 0.10 1.02 55 1013.3
20260504022714 12 248 0.0 0.0 0.05 0.10 0.99 55 1013.4
20260504022512 12 267 0.0 0.0 0.05 0.10 0.91 54 1013.4
20260504022503 12 267 0.0 0.0 0.05 0.10 0.89 54 1013.4
20260504022457 12 267 0.0 0.0 0.05 0.10 0.86 54 1013.3
20260504022211 12 195 0.0 0.0 0.05 0.10 0.99 55 1013.4
20260504021712 12 243 0.0 0.0 0.05 0.10 0.97 54 1013.4
20260504021213 12 243 1.6 0.0 0.05 0.10 0.94 54 1013.4
20260504020710 12 267 0.0 0.0 0.05 0.10 0.91 54 1013.4
20260504020211 12 267 0.0 0.0 0.05 0.10 0.89 54 1013.4
20260504015712 12 267 0.0 0.0 0.05 0.10 0.86 54 1013.3
20260504015310 13 212 0.0 0.0 0.03 0.10 0.79 52 1013.2
20260504015302 13 212 0.0 0.0 0.03 0.10 0.79 52 1013.1
20260504015254 13 276 0.0 0.0 0.03 0.10 0.79 52 1013.1
20260504015210 12 246 0.0 0.0 0.05 0.10 0.84 53 1013.4
20260504014711 12 229 0.0 0.0 0.03 0.10 0.84 53 1013.4
20260504014212 12 184 0.0 0.0 0.03 0.10 0.81 52 1013.4
20260504013811 12 322 0.0 0.0 0.03 0.10 0.79 52 1013.3
20260504013708 12 322 0.0 0.0 0.03 0.10 0.79 52 1013.3
20260504013209 13 212 0.0 0.0 0.03 0.10 0.79 52 1013.2
20260504012710 13 212 0.0 0.0 0.03 0.10 0.79 52 1013.1
20260504012207 13 276 0.0 0.0 0.03 0.10 0.79 52 1013.1
20260504012058 13 232 0.0 1.6 0.03 0.10 0.79 50 1012.7
20260504011708 13 276 0.0 0.0 0.03 0.10 0.79 52 1013.0
20260504011209 13 276 0.0 0.0 0.03 0.10 0.79 51 1012.9
20260504010706 13 269 0.0 0.0 0.03 0.10 0.79 51 1012.8
20260504010206 13 200 0.0 0.0 0.03 0.10 0.79 51 1012.8
20260504005706 13 200 0.0 0.0 0.03 0.10 0.79 50 1012.7
20260504005202 13 232 0.0 1.6 0.03 0.10 0.79 50 1012.7
20260504004905 13 210 0.0 0.0 0.18 0.10 0.79 49 1012.6
20260504004857 14 210 0.0 0.0 0.18 0.10 0.79 49 1012.5
20260504004703 13 210 0.0 0.0 0.18 0.10 0.79 49 1012.6
20260504004204 13 210 0.0 0.0 0.18 0.10 0.79 49 1012.6
20260504003701 14 210 0.0 0.0 0.18 0.10 0.79 49 1012.5
20260504003154 14 210 0.0 0.0 0.18 0.10 0.79 48 1012.4
20260504003146 14 271 0.0 0.0 0.18 0.10 0.79 47 1012.4
20260504002659 14 210 0.0 0.0 0.18 0.10 0.79 48 1012.4
20260504002155 14 271 0.0 0.0 0.18 0.10 0.79 47 1012.4
20260504001656 14 271 0.0 0.0 0.18 0.10 0.79 47 1012.3
20260504001156 14 271 0.0 0.0 0.18 0.10 0.79 46 1012.2
20260504000652 15 271 0.0 0.0 0.18 0.10 0.79 46 1012.2
20260504000153 15 242 0.0 0.0 0.18 0.10 0.79 45 1012.1
20260503235821 15 228 0.0 0.0 0.18 0.10 0.76 44 1012.1
20260503235818 15 228 0.0 0.0 0.18 0.10 0.76 44 1011.9
20260503235654 15 228 0.0 0.0 0.18 0.10 0.76 44 1012.1
20260503235228 15 228 0.0 0.0 0.18 0.10 0.76 44 1011.9
20260503235151 15 228 0.0 0.0 0.18 0.10 0.76 44 1011.9
20260503234652 15 228 0.0 0.0 0.08 0.10 0.76 43 1012.0
20260503234453 15 228 0.0 0.0 0.08 0.10 0.69 41 1011.9
20260503234153 15 228 0.0 0.0 0.08 0.10 0.76 43 1011.9
20260503233650 15 228 0.0 0.0 0.08 0.10 0.76 42 1011.9
20260503233151 15 228 0.0 0.0 0.08 0.10 0.76 42 1011.8
20260503232652 15 228 0.0 0.0 0.08 0.10 0.76 41 1011.8
20260503232148 15 228 0.0 0.0 0.08 0.10 0.74 41 1011.8
20260503231649 15 228 0.0 0.0 0.08 0.10 0.69 41 1011.9
20260503231150 15 228 0.0 0.0 0.08 0.10 0.69 41 1011.8
20260503230647 16 194 0.0 0.0 0.08 0.10 0.64 41 1011.7
20260503230148 16 309 0.0 0.0 0.08 0.10 0.61 40 1011.7
20260503225930 16 309 0.0 0.0 0.08 0.10 0.61 40 1011.7
20260503225649 16 309 0.0 0.0 0.08 0.10 0.61 40 1011.7
20260503225145 16 298 0.0 0.0 0.08 0.10 0.58 39 1011.6
20260503224646 16 291 1.6 6.4 0.18 0.10 0.56 39 1011.7
20260503224347 16 301 0.0 0.0 0.18 0.10 0.56 39 1011.7
20260503224147 16 301 0.0 0.0 0.18 0.10 0.56 39 1011.7
20260503224057 16 342 0.0 1.6 0.18 0.10 0.53 38 1011.5
20260503223644 16 278 0.0 1.6 0.18 0.10 0.56 38 1011.6
20260503223145 16 295 0.0 0.0 0.18 0.10 0.56 39 1011.6
20260503222646 16 295 1.6 0.0 0.18 0.10 0.56 39 1011.6
20260503222347 16 7 0.0 0.0 0.18 0.10 0.53 39 1011.5
20260503222142 16 7 0.0 0.0 0.18 0.10 0.53 39 1011.5
20260503221643 16 342 0.0 0.0 0.18 0.10 0.53 39 1011.6
20260503221607 16 342 0.0 1.6 0.18 0.10 0.53 38 1011.5
20260503221144 16 342 0.0 1.6 0.18 0.10 0.53 38 1011.5
20260503220932 16 293 0.0 0.0 0.18 0.10 0.53 38 1011.5
20260503220903 17 309 1.6 4.8 0.00 0.10 0.51 37 1011.4
20260503220854 17 343 1.6 1.6 0.00 0.10 0.48 37 1011.4
20260503220641 16 293 0.0 0.0 0.18 0.10 0.53 38 1011.5
20260503220408 16 264 0.0 0.0 0.18 0.10 0.53 37 1011.5
20260503220142 16 264 0.0 0.0 0.18 0.10 0.53 37 1011.5
20260503220106 16 288 0.0 0.0 0.18 0.10 0.51 37 1011.6
20260503215643 16 288 0.0 0.0 0.18 0.10 0.51 37 1011.6
20260503215542 16 10 1.6 1.6 0.18 0.10 0.51 37 1011.5
20260503215139 16 10 1.6 1.6 0.18 0.10 0.51 37 1011.5
20260503214640 17 309 1.6 4.8 0.00 0.10 0.51 37 1011.4
20260503214539 17 343 1.6 1.6 0.00 0.10 0.48 37 1011.4
20260503214141 17 343 1.6 1.6 0.00 0.10 0.48 37 1011.4
20260503213654 17 323 1.6 0.0 0.00 0.10 0.33 37 1011.4
20260503213638 17 37 3.2 0.0 0.00 0.10 0.46 38 1011.4
20260503213601 17 191 3.2 3.2 0.00 0.10 0.46 37 1011.3
20260503213138 17 191 3.2 3.2 0.00 0.10 0.46 37 1011.3
20260503212639 17 312 0.0 4.8 0.00 0.10 0.41 37 1011.4
20260503212136 17 314 1.6 1.6 0.00 0.10 0.36 37 1011.4
20260503211637 17 359 1.6 3.2 0.00 0.10 0.33 36 1011.3
20260503211138 17 323 1.6 0.0 0.00 0.10 0.33 37 1011.4
20260503210717 17 359 1.6 4.8 0.00 0.10 0.33 37 1011.3
20260503210634 17 359 1.6 4.8 0.00 0.10 0.33 37 1011.3
20260503210458 17 229 4.8 3.2 0.00 0.10 0.33 37 1011.3
20260503210135 17 319 0.0 0.0 0.00 0.10 0.33 37 1011.3
20260503205636 17 316 1.6 0.0 0.00 0.10 0.33 37 1011.4
20260503205133 17 308 0.0 0.0 0.00 0.10 0.33 37 1011.2
20260503204634 17 353 1.6 3.2 0.00 0.10 0.33 37 1011.3
20260503204133 17 229 4.8 3.2 0.00 0.10 0.33 37 1011.3
20260503203631 17 262 1.6 0.0 0.00 0.10 0.33 38 1011.2
20260503203149 18 298 4.8 0.0 0.00 0.10 0.33 38 1011.2
20260503203131 17 349 4.8 0.0 0.00 0.10 0.33 37 1011.2
20260503202632 17 263 1.6 0.0 0.00 0.10 0.33 37 1011.2
20260503202442 18 328 1.6 1.6 0.00 0.10 0.33 38 1011.2
20260503202128 18 328 1.6 1.6 0.00 0.10 0.33 38 1011.2
20260503201629 18 263 1.6 3.2 0.00 0.10 0.33 38 1011.2
20260503201130 18 298 4.8 0.0 0.00 0.10 0.33 38 1011.2
20260503200917 18 318 1.6 3.2 0.00 0.10 0.33 38 1011.2
20260503200627 18 318 1.6 3.2 0.00 0.10 0.33 38 1011.2
20260503200206 18 316 3.2 0.0 0.00 0.10 0.33 38 1011.3
20260503200128 18 316 3.2 0.0 0.00 0.10 0.33 38 1011.3
20260503200058 18 236 0.0 0.0 0.18 0.10 0.33 39 1011.4
20260503200053 18 343 3.2 0.0 0.18 0.10 0.33 39 1011.6
20260503195730 18 172 3.2 1.6 0.00 0.10 0.33 38 1011.4
20260503195628 18 311 0.0 4.8 0.00 0.10 0.33 39 1011.4
20260503195125 18 172 3.2 1.6 0.00 0.10 0.33 38 1011.4